Regional Weather Roundup
Issued by NWS

Home | Current Version | Previous Version | Text Only | Print | Product List | Glossary On
Versions: 1 2 3 4 5 6 7 8 9 10 11 12 13 14 15 16 17 18 19 20 21 22 23 24 25 26 27 28 29 30 31 32 33 34 35 36 37 38 39 40 41 42 43 44 45 46 47 48 49 50
000
ASUS43 KDTX 210001
RWRMI
MICHIGAN HOURLY REGIONAL WEATHER ROUNDUP
NATIONAL WEATHER SERVICE DETROIT/PONTIAC MI
800 PM EDT SAT SEP 20 2014

NOTE: "FAIR" INDICATES FEW OR NO CLOUDS BELOW 12,000 FEET WITH NO
SIGNIFICANT WEATHER AND/OR OBSTRUCTION TO VISIBILITY.

MIZ047>049-052>055-059>063-066>070-074>076-081>083-210100-
SOUTHEAST LOWER MICHIGAN

CITY           SKY/WX    TMP DP  RH WIND       PRES   REMARKS
ADRIAN         RAIN      63  61  93 SW6       29.88F FOG
6HR MIN TEMP:  63; 6HR MAX TEMP:  81; 6HR PCP:  0.50;

ALMA           CLOUDY    67  64  90 S6        29.73F
ANN ARBOR      TSTM      64  61  90 SW8       29.84R
BAD AXE        CLOUDY    66  66 100 SW7       29.74F
6HR MIN TEMP:  65; 6HR MAX TEMP:  77;

CARO           LGT RAIN  65  64  94 SW10G17   29.75R
DETROIT CITY   LGT RAIN  72  64  76 W6        29.80R
6HR MIN TEMP:  72; 6HR MAX TEMP:  81; 6HR PCP:  0.06;

DETROIT        TSTM      65  62  90 W31G53    29.84R SQUALL
6HR MIN TEMP:  65; 6HR MAX TEMP:  81; 6HR PCP:  0.25;

FLINT          RAIN      71  65  81 SW12G22   29.77S
6HR MIN TEMP:  71; 6HR MAX TEMP:  80; 6HR PCP:  0.02;

GROSSE ILE     HVY RAIN  72  63  73 SW23G40   29.87R
HILLSDALE      LGT RAIN  64  64 100 S8        29.84F
6HR MIN TEMP:  63; 6HR MAX TEMP:  80;

HOWELL         RAIN      66  64  94 S10       29.79F
6HR MIN TEMP:  66; 6HR MAX TEMP:  77;


CITY           SKY/WX    TMP DP  RH WIND       PRES   REMARKS
JACKSON        CLOUDY    64  62  93 S9        29.82S
6HR MIN TEMP:  64; 6HR MAX TEMP:  78; 6HR PCP:  0.44;

LAMBERTVILLE   LGT RAIN  64  61  88 SW5       29.89R
LANSING        CLOUDY    68  63  84 SW10      29.77F
6HR MIN TEMP:  68; 6HR MAX TEMP:  79; 6HR PCP:  0.05;

LAPEER         RAIN      68  59  72 NW12G24   29.80R
MASON          LGT RAIN  66  64  91 S3        29.79F
MONROE         RAIN      64  61  88 W8        29.86R
MT. CLEMENS    TSTM      69  69  99 SW10      29.79R
6HR MIN TEMP:  69; 6HR MAX TEMP:  79; 6HR PCP:  0.07;

PONTIAC        TSTM      67  63  87 SW12      29.80R
6HR MIN TEMP:  67; 6HR MAX TEMP:  77; 6HR PCP:  0.06;

PORT HOPE        N/A     67  63  87 SW6       29.69F
6HR MIN TEMP:  67; 6HR MAX TEMP:  77; 6HR PCP:  0.52;

PORT HURON     LGT RAIN  70  63  78 SW9       29.79R
TRI CITIES     LGT RAIN  70  65  84 W10       29.73F
6HR MIN TEMP:  70; 6HR MAX TEMP:  79; 6HR PCP:  0.14;

TROY           RAIN      69  66  89 SW8G21    29.83R
SAGINAW HB     LGT RAIN  68  68 100 SW6       29.73F
$$
MIZ043>046-050>051-056>058-064>065-071>073-077>080-210100-
SOUTHWEST LOWER MICHIGAN

CITY           SKY/WX    TMP DP  RH WIND       PRES   REMARKS
BATTLE CREEK   CLOUDY    67  64  90 S9        29.80F
6HR MIN TEMP:  67; 6HR MAX TEMP:  79; 6HR PCP:  0.04;

BENTON HARBOR  PTCLDY    68  67  96 S7        29.79R FOG
6HR MIN TEMP:  68; 6HR MAX TEMP:  78; 6HR PCP:  0.05;

BIG RAPIDS     CLOUDY    64  63  99 CALM      29.72R
6HR MIN TEMP:  64; 6HR MAX TEMP:  75; 6HR PCP:  0.19;

COLDWATER      CLOUDY    64  62  92 S7        29.82F
6HR MIN TEMP:  64; 6HR MAX TEMP:  77;

FREMONT        FAIR      64  64  97 SW6       29.73S FOG
HOLLAND        PTCLDY    66  63  90 S5        29.77R
6HR MIN TEMP:  66; 6HR MAX TEMP:  75; 6HR PCP:  0.59;

GRAND RAPIDS   CLOUDY    67  67 100 SW12      29.77R
6HR MIN TEMP:  67; 6HR MAX TEMP:  77; 6HR PCP:  0.20;

IONIA          FAIR      67  65  93 SW8       29.76R
KALAMAZOO      CLOUDY    67  65  93 S8        29.80F FOG
6HR MIN TEMP:  67; 6HR MAX TEMP:  81; 6HR PCP:  0.04;

LUDINGTON      CLEAR     63  60  93 SW8       29.71S
MARSHALL       CLOUDY    64  63  94 S9        29.80F
MOUNT PLEASANT CLOUDY    67  64  93 SW5       29.71F
6HR MIN TEMP:  67; 6HR MAX TEMP:  78; 6HR PCP:  0.24;

MUSKEGON       PTCLDY    65  61  87 SW15      29.75R
6HR MIN TEMP:  65; 6HR MAX TEMP:  69; 6HR PCP:  0.16;

SOUTH HAVEN    PTCLDY    66  64  93 CALM      29.78R
$$
MIZ016>042-210100-
NORTHERN LOWER MICHIGAN

CITY           SKY/WX    TMP DP  RH WIND       PRES   REMARKS
ALPENA         LGT RAIN  66  64  93 SW7       29.63F
6HR MIN TEMP:  65; 6HR MAX TEMP:  71; 6HR PCP:  0.11;

BEAVER ISLAND  MOCLDY    62  60  95 CALM      29.66F FOG
6HR MIN TEMP:  62; 6HR MAX TEMP:  69;

BELLAIRE       CLOUDY    67  64  89 SW5       29.65F
6HR MIN TEMP:  67; 6HR MAX TEMP:  72;

CADILLAC       CLOUDY    64  64  99 SW6       29.70F FOG
CHARLEVOIX     CLOUDY    65  63  92 W16       29.68S
6HR MIN TEMP:  65; 6HR MAX TEMP:  71;

FRANKFORT      MOCLDY    66  61  85 SW5       29.67F
GAYLORD        CLOUDY    65  62  90 SW15G23   29.67F
6HR MIN TEMP:  64; 6HR MAX TEMP:  70; 6HR PCP:  0.13;

GRAYLING       CLOUDY    66  65  98 SW6       29.69S
6HR MIN TEMP:  65; 6HR MAX TEMP:  72;

HARBOR SPRINGS CLOUDY    64  62  93 W7        29.65F
HOUGHTON LAKE  CLOUDY    63  62  97 SW8       29.69F FOG
6HR MIN TEMP:  63; 6HR MAX TEMP:  73; 6HR PCP:  0.11;

MANISTEE       CLEAR     66  61  82 SW6       29.70S
OSCODA         CLOUDY    65  64  95 SW13      29.66F
PELLSTON       CLOUDY    64  63  96 W6        29.66F
6HR MIN TEMP:  64; 6HR MAX TEMP:  70; 6HR PCP:  0.17;

ROGERS CITY    CLOUDY    66  65  94 W6        29.64S
TRAVERSE CITY  PTCLDY    67  63  87 SW8       29.64F
6HR MIN TEMP:  67; 6HR MAX TEMP:  72; 6HR PCP:  0.17;

$$
MIZ007>008-015-210100-
EASTERN UPPER MICHIGAN

CITY           SKY/WX    TMP DP  RH WIND       PRES   REMARKS
KINROSS        CLOUDY    61  61 100 NW7       29.65R
6HR MIN TEMP:  61; 6HR MAX TEMP:  66; 6HR PCP:  0.01;

MACKINAC ISLAN CLOUDY    62  61  97 W5        29.65S
6HR MIN TEMP:  62; 6HR MAX TEMP:  67; 6HR PCP:  0.03;

NEWBERRY       PTCLDY    57  54  90 NW6       29.67R
S. S. MARIE    CLOUDY    60  56  86 NW7       29.64R
6HR MIN TEMP:  60; 6HR MAX TEMP:  68; 6HR PCP: TRACE;

$$
MIZ004>006-011>014-085-210100-
CENTRAL UPPER MICHIGAN

CITY           SKY/WX    TMP DP  RH WIND       PRES   REMARKS
MANISTIQUE     MOCLDY    62  56  82 N13       29.67R
ESCANABA       CLEAR     66  54  63 NW6       29.66R
6HR MIN TEMP:  66; 6HR MAX TEMP:  81;

MENOMINEE      PTCLDY    66  57  72 CALM      29.65S
6HR MIN TEMP:  66; 6HR MAX TEMP:  75;

SAWYER-GWINN   CLEAR     61  54  77 N7          N/A
$$
MIZ001>003-009>011-084-210100-
WESTERN UPPER MICHIGAN

CITY           SKY/WX    TMP DP  RH WIND       PRES   REMARKS
IRON MOUNTAIN  PTCLDY    64  54  69 NW6       29.68S
6HR MIN TEMP:  64; 6HR MAX TEMP:  77;

HOUGHTON       CLOUDY    54  51  90 CALM      29.70S
6HR MIN TEMP:  54; 6HR MAX TEMP:  67;

COPPER HARBOR    N/A     53  50  89 N8        29.70R
6HR MIN TEMP:  53; 6HR MAX TEMP:  63;

IRONWOOD       CLEAR     57  52  82 CALM      29.68F
6HR MIN TEMP:  57; 6HR MAX TEMP:  64;

$$

ABBREVIATIONS USED IN REMARKS
   TC - TEMPERATURE IN CELSIUS
  WCI - WIND CHILL INDEX
   HX - HEAT INDEX
  VSB - VISIBILITY



USA.gov is the U.S. government's official web portal to all federal, state and local government web resources and services.